Regional Weather Roundup
Issued by NWS Green Bay, WI

Home | Current Version | Previous Version | Text Only | Print | Product List | Glossary On
Versions: 1 2 3 4 5 6 7 8 9 10 11 12 13 14 15 16 17 18 19 20 21 22 23 24 25 26 27 28 29 30 31 32 33 34 35 36 37 38 39 40 41 42 43 44 45 46 47 48 49 50
000
ASUS43 KGRB 220011
RWRGRB

NORTH-CENTRAL AND NORTHEAST WISCONSIN REGIONAL WEATHER ROUNDUP
NATIONAL WEATHER SERVICE GREEN BAY WI
700 PM CDT THU MAY 21 2015

WIZ005-009-010>012-018-019-220100-
NORTH CENTRAL WISCONSIN

CITY           SKY/WX    TMP DP  RH WIND       PRES   REMARKS
IRONWOOD       SUNNY     59  28  31 NW7       29.98F
MANITOWISH WTR SUNNY     59  29  31 N7        30.01S
ARBOR VITAE    SUNNY     59  27  29 N9        30.00F
EAGLE RIVER    SUNNY     59  23  24 N12       30.00R
LAND O LAKES   SUNNY     59  25  27 N9        30.01S
RHINELANDER    SUNNY     60  25  26 NW9G20    30.00S
PHILLIPS       SUNNY     62  33  34 N9        29.99S
ANTIGO         SUNNY     63  27  26 NW15      29.97R
TOMAHAWK       SUNNY     61  25  25 N8        30.01R
MERRILL        SUNNY     63  29  27 N12G18    29.99R
$$

WIZ013-073-220100-
NORTHEAST WISCONSIN

CITY           SKY/WX    TMP DP  RH WIND       PRES   REMARKS
IRON MOUNTAIN  SUNNY     62  27  26 N12       29.95S
MARINETTE      SUNNY     55  34  44 E14G20    29.98R
OCONTO         MOSUNNY   56  38  50 E8        29.97R
$$

WIZ017-030-035>037-045-220100-
CENTRAL WISCONSIN

CITY           SKY/WX    TMP DP  RH WIND       PRES   REMARKS
MEDFORD        SUNNY     62  32  32 N8        29.99R
WAUSAU         SUNNY     66  26  22 N16G22    29.95R
MOSINEE        MOSUNNY   66  30  26 N14G24    29.95S
MARSHFIELD     SUNNY     68  36  30 N12       29.96R
WISC RAPIDS    MOSUNNY   71  31  22 NW15      29.95R
STEVENS POINT  MOSUNNY   68  36  30 NW12G18   29.94R
WAUPACA        PTSUNNY   72  31  22 NW10G20   29.92R
SHAWANO        CLOUDY    60  43  53 E10G16    29.96R
CLINTONVILLE   CLOUDY    68  39  34 N12G17    29.92R
$$

WIZ038-039-048-051-220100-
FOX VALLEY

CITY           SKY/WX    TMP DP  RH WIND       PRES   REMARKS
NWS GREEN BAY  PTSUNNY   59  42  53 E12       29.94R
APPLETON       PTSUNNY   66  36  32 NW6       29.92S
OSHKOSH        MOSUNNY   70  37  29 W8        29.91S
FOND DU LAC    LGT RAIN  67  37  33 W13G33    29.93R
$$

WIZ022-050-052-220100-
EAST CENTRAL WISCONSIN

CITY           SKY/WX    TMP DP  RH WIND       PRES   REMARKS
STURGEON BAY   MOSUNNY   55  30  38 E13G18    30.00R
MANITOWOC      CLOUDY    56  37  49 NE10G17   29.97R
SHEBOYGAN      CLOUDY    64  38  38 NE17      29.93R
$$

LMZ563-521-522-541>543-220100-
LAKESHORE

STATION/POSITION TIME  TEMP    WIND        PRES    VSBY  WAVE
                       AIR SEA DIR/SP/G                  HT/PER
                 (UTC) (F)     (DEG/KT/KT) (MB)    (MI)  (FT/S)
SHEBOYGAN LKSHOR 0000           10/  8/ 11 1014.1R
KEWAUNEE LKSHORE 2300           30/  8/ 14 1013.7R
NORTHPORT PIER   2300   56      30/ 14/ 18 1014.9R
N MID LAKE BUOY  2350   43 36  360/  8/  8 1015.8R         1/ 4
SISTER BAY LKSHO 2317   59      20/ 13/ 20   N/A
CHAMBERS ISLAND  2300   54      50/ 13/ 18 1014.9
MENOMINEE LKSHOR 2300   54      60/ 13/ 15 1015.3R
$$



USA.gov is the U.S. government's official web portal to all federal, state and local government web resources and services.